HXMT (HUIYAN)

Last updated on Thu Oct 30 2025 00:02:16 GMT+0000 (Coordinated Universal Time)

1 42758U 17034A 25302.51249660 .00008022 00000+0 42246-3 0 9998 2 42758 43.0156 24.9271 0031981 127.5673 232.8086 15.15515354462629
UTC large
Height (km)
Speed (km/s)
/
Latitude / Longitude
Inclination (degrees)
Orbital Period (minutes)
Azimuth
Elevation
Range (km)
Doppler Factor

Next 0 passes for location: London (51.5072 / 0.1276)

Sorry there are no passes over London.